User: anonymous   Login
Location: Oshawa
(43.9000°N, 78.8670°W)
Time: 10:23:34
(UTC-04:00)
Language:

Cosmos 1953 Rocket - Orbit

View from above orbital plane
View from above orbital plane
View from above satellite
View from above satellite

Ground track
Ground track

The orbit data is extracted from the following two-line orbital elements,

1 19211U 88050B   14302.27488288  .00000610  00000-0  72654-4 0  3878
2 19211 082.5292 021.8537 0022903 049.8660 005.8338 14.82512744424240
Epoch (UTC): 29 October 2014 06:35:49
Eccentricity: 0.0022903
inclination: 82.5292°
perigee height: 605 km
apogee height: 637 km
right ascension of ascending node: 21.8537°
argument of perigee: 49.8660°
revolutions per day: 14.82512744
mean anomaly at epoch: 5.8338°
orbit number at epoch: 42424

The dashed part of the orbit path shows where the satellite is in the earth's shadow,  

DLR